Weather History for Mosinee, WI

Change the Weather History Date:

Monday, January 21, 2013

  Actual Average Record
Temperature  
Mean Temperature -4 °F -  
Max Temperature 1 °F 20 °F 39 °F (1997)
Min Temperature -9 °F 3 °F -16 °F (2000)
Degree Days  
Heating Degree Days 69    
Moisture  
Dew Point -12 °F    
Average Humidity 72    
Maximum Humidity 84    
Minimum Humidity 65    
Precipitation  
Precipitation 0.00 in - - ()
Sea Level Pressure  
Sea Level Pressure 30.12 in    
Wind  
Wind Speed 10 mph (WNW)    
Max Wind Speed 20 mph    
Max Gust Speed 26 mph    
Visibility 9 miles    
Events      
Averages and records for this station are not official NWS values.
T = Trace of Precipitation, MM = Missing Value Source: NWS Daily Summary

Daily Weather History Graph

Daily Weather History Graph

Search for Another Location

Airport:

Trip Planner

Search our weather history database for the weather conditions in past years. The results will help you decide how hot, cold, wet, or windy it might be!

Date:

Astronomy

Jan. 21, 2013 Rise Set
Actual Time 7:28 AM CST 4:52 PM CST
Civil Twilight 6:56 AM CST 5:24 PM CST
Nautical Twilight 6:20 AM CST 6:00 PM CST
Astronomical Twilight 5:45 AM CST 6:34 PM CST
Moon 12:31 PM CST (1/21) 2:57 AM CST (1/21)
Length of Visible Light 10h 28m
Length of Day
9h 23m
Waxing Gibbous, 75% of the Moon is Illuminated
Jan 21
Waxing Gibbous
Jan 26
Full
Feb 3
Last Quarter
Feb 10
New
Feb 17
First Quarter

Hourly Weather History & Observations

Time (CST) Temp. Windchill Dew Point Humidity Pressure Visibility Wind Dir Wind Speed Gust Speed Precip Events Conditions
12:15 AM 1.4 °F -14.5 °F -5.8 °F 72% 30.11 in 10.0 mi WNW 10.4 mph - N/A   Overcast
12:35 AM 1.4 °F -14.5 °F -5.8 °F 72% 30.10 in 10.0 mi WNW 10.4 mph - N/A   Overcast
12:55 AM 1.4 °F -9.9 °F -5.8 °F 72% 30.09 in 10.0 mi West 5.8 mph - N/A   Overcast
1:15 AM -0.4 °F -12.0 °F -5.8 °F 78% 30.09 in 10.0 mi West 5.8 mph - N/A   Mostly Cloudy
1:35 AM -0.4 °F -13.4 °F -5.8 °F 78% 30.08 in 10.0 mi West 6.9 mph - N/A   Mostly Cloudy
1:55 AM -0.4 °F -12.0 °F -5.8 °F 78% 30.08 in 10.0 mi West 5.8 mph - N/A   Overcast
2:15 AM -0.4 °F -12.0 °F -5.8 °F 78% 30.08 in 10.0 mi West 5.8 mph - N/A   Scattered Clouds
2:35 AM -0.4 °F -12.0 °F -5.8 °F 78% 30.08 in 10.0 mi West 5.8 mph - N/A   Scattered Clouds
2:55 AM -0.4 °F -15.7 °F -5.8 °F 78% 30.07 in 10.0 mi West 9.2 mph - N/A   Mostly Cloudy
3:15 AM -0.4 °F -15.7 °F -5.8 °F 78% 30.07 in 10.0 mi West 9.2 mph - N/A   Mostly Cloudy
3:35 AM -0.4 °F -16.7 °F -5.8 °F 78% 30.07 in 7.0 mi West 10.4 mph 16.1 mph N/A   Overcast
3:55 AM -0.4 °F -18.4 °F -5.8 °F 78% 30.07 in 7.0 mi WNW 12.7 mph 19.6 mph N/A   Overcast
4:15 AM -0.4 °F -19.2 °F -5.8 °F 78% 30.06 in 10.0 mi WNW 13.8 mph - N/A   Overcast
4:35 AM -0.4 °F -19.2 °F -5.8 °F 78% 30.06 in 7.0 mi West 13.8 mph 17.3 mph N/A   Overcast
5:45 AM -5.8 °F -26.8 °F -9.4 °F 84% 30.07 in 7.0 mi NW 15.0 mph 20.7 mph N/A   Overcast
6:45 AM -7.6 °F -27.5 °F -14.8 °F 71% 30.08 in 10.0 mi NW 12.7 mph 17.3 mph N/A   Clear
7:50 AM -9.4 °F -32.1 °F -18.4 °F 65% 30.11 in 10.0 mi NW 16.1 mph - N/A   Scattered Clouds
9:50 AM -9.4 °F -29.8 °F -16.6 °F 71% 30.13 in 4.0 mi WNW 12.7 mph 19.6 mph N/A   Haze
10:45 AM -7.6 °F -28.3 °F -16.6 °F 65% 30.14 in 4.0 mi WNW 13.8 mph 20.7 mph N/A   Haze
11:45 AM -7.6 °F -29.8 °F -16.6 °F 65% 30.12 in 5.0 mi West 16.1 mph 24.2 mph N/A   Haze
12:45 PM -7.6 °F -29.8 °F -16.6 °F 65% 30.11 in 7.0 mi West 16.1 mph 25.3 mph N/A   Haze
1:45 PM -7.6 °F -29.8 °F -16.6 °F 65% 30.10 in 10.0 mi WNW 16.1 mph 21.9 mph N/A   Mostly Cloudy
3:50 PM -7.6 °F -31.7 °F -16.6 °F 65% 30.12 in 10.0 mi West 19.6 mph 26.5 mph N/A   Mostly Cloudy
4:50 PM -7.6 °F -28.3 °F -16.6 °F 65% 30.12 in 10.0 mi WNW 13.8 mph 20.7 mph N/A   Scattered Clouds
5:58 PM -9.4 °F -32.1 °F -16.6 °F 71% 30.14 in 10.0 mi WNW 16.1 mph 24.2 mph N/A   Scattered Clouds
6:50 PM -9.4 °F -27.9 °F -18.4 °F 65% 30.16 in 10.0 mi West 10.4 mph 16.1 mph N/A   Scattered Clouds
7:50 PM -9.4 °F -31.4 °F -18.4 °F 65% 30.16 in 10.0 mi West 15.0 mph - N/A   Clear
8:50 PM -9.4 °F -25.6 °F -18.4 °F 65% 30.17 in 10.0 mi WNW 8.1 mph - N/A   Clear
9:15 PM -9.4 °F -26.8 °F -16.6 °F 71% 30.17 in 10.0 mi WNW 9.2 mph - N/A   Clear
9:35 PM -9.4 °F -25.6 °F -16.6 °F 71% 30.18 in 10.0 mi WNW 8.1 mph - N/A   Clear
10:15 PM -9.4 °F -27.9 °F -16.6 °F 71% 30.18 in 10.0 mi WNW 10.4 mph - N/A   Clear
10:35 PM -9.4 °F -27.9 °F -16.6 °F 71% 30.18 in 10.0 mi WNW 10.4 mph - N/A   Clear
10:55 PM -9.4 °F -25.6 °F -16.6 °F 71% 30.19 in 10.0 mi WNW 8.1 mph - N/A   Clear
11:15 PM -9.4 °F -27.9 °F -16.6 °F 71% 30.19 in 10.0 mi WNW 10.4 mph 16.1 mph N/A   Clear
11:55 PM -9.4 °F -28.9 °F -16.6 °F 71% 30.18 in 10.0 mi West 11.5 mph - N/A   Clear